Regional Weather Roundup
Issued by NWS

Home | Current Version | Previous Version | Text Only | Print | Product List | Glossary On
Versions: 1 2 3 4 5 6 7 8 9 10 11 12 13 14 15 16 17 18 19 20 21 22 23 24 25 26 27
000
ASUS46 KPQR 211610
RWROR

OREGON REGIONAL WEATHER ROUNDUP
NATIONAL WEATHER SERVICE PORTLAND OR
900 AM PDT SAT OCT 21 2017

NOTE: "FAIR" INDICATES FEW OR NO CLOUDS BELOW 12,000 FEET WITH
NO SIGNIFICANT WEATHER AND/OR OBSTRUCTIONS TO VISIBILITY.

ORZ001>013-211700-
NORTHWEST OREGON


CITY           SKY/WX    TMP DP  RH WIND       PRES   REMARKS
ASTORIA        LGT RAIN  54  51  90 S14G24    29.73R
NEWPORT        RAIN      52  52 100 S23G38    29.87R
PORTLAND       LGT RAIN  48  47  96 E17       29.87R
VANCOUVER WA   LGT RAIN  49  48  97 SE10      29.86S
SCAPPOOSE      CLOUDY    47  46  97 SE9       29.85R FOG
HILLSBORO      NOT AVBL
AURORA         LGT RAIN  50  48  93 S12G25    29.85F
MCMINNVILLE    LGT RAIN  49  49 100 S14       29.84S
SALEM          LGT RAIN  50  45  83 S20G30    29.85R
CORVALLIS      LGT RAIN  47  46  97 S22G28    29.88R
EUGENE         LGT RAIN  48  46  93 S18       29.92R
$$

ORZ021-028-211700-
SOUTHWEST OREGON


CITY           SKY/WX    TMP DP  RH WIND       PRES   REMARKS
NORTH BEND     LGT RAIN  56  53  90 S17G28    29.93R
BROOKINGS      LGT RAIN  51  50  96 S14G23    30.09R FOG
ROSEBURG       RAIN      50  47  89 VRB3      29.99R FOG
SEXTON SUMMIT  FOG       39  38  96 S16G25    30.01R VSB<1/4 WCI  30
GRANTS PASS    CLOUDY    45  43  93 CALM      30.11R
MEDFORD        LGT RAIN  43  42  97 N7        30.10R
$$

ORZ014>016-041-211700-
COLUMBIA GORGE


CITY           SKY/WX    TMP DP  RH WIND       PRES   REMARKS
TROUTDALE      LGT RAIN  48  45  89 E14       29.87S FOG
HOOD RIVER     RAIN      43  41  93 N5        29.93R
THE DALLES     LGT RAIN  46  44  93 E6        29.94F
$$

ORZ029>031-041-044-049-050-061>064-502-503-505>511-211700-
EASTERN OREGON


CITY           SKY/WX    TMP DP  RH WIND       PRES   REMARKS
MADRAS         DRIZZLE  N/A N/A N/A S17G24    29.92R
REDMOND        CLOUDY    40  34  79 SE9       29.93R WCI  34
BEND           CLOUDY    43  36  75 S15G22    29.95S
PRINEVILLE     MIX PCPN  39  36  87 S9G17     29.96S WCI  33
KLAMATH FALLS  LGT RAIN  34  33  96 CALM      30.11R
LAKEVIEW       LGT SNOW  32  32 100 S16       30.15R FOG     WCI  21
HERMISTON      LGT RAIN  44  42  93 CALM      29.97S FOG
PENDLETON      LGT RAIN  46  35  65 S13       29.96S
JOHN DAY       FLURRIES  35  33  94 E6        30.04R WCI  30
MEACHAM        LGT SNOW  36  29  75 CALM      29.97R
LA GRANDE      CLOUDY    41  27  57 SE9       30.04R
BAKER CITY     CLOUDY    40  29  64 SE12      30.06R WCI  33
BURNS          SNOW      32  32 100 E5        30.09S VSB 1/2 WCI  27
ROME             N/A     41  28  60 S10       30.11R
ONTARIO        CLOUDY    39  32  76 CALM      30.16R
$$




USA.gov is the U.S. government's official web portal to all federal, state and local government web resources and services.